iso_date,epoch_date,Year,Hour,Min,DOY,POS_DOY,Lat,Lon,BP,Ts,Ta,has_bp,has_ts,has_ta,BuoyID,Buoy_Type,Buoy_Owner,Logistics,Hemisphere
2014-10-25T00:40:19Z,1414197619,2014,0,40,298.028,297.988,73.4539,162.5889,-999.00,21.24,-999.0,yes,yes,yes,46516,unknown,unknown,unknown,North
2014-10-25T01:39:21Z,1414201162,2014,1,40,298.069,297.988,73.4539,162.5889,-999.00,21.32,23.65,yes,yes,yes,46516,unknown,unknown,unknown,North
2014-10-25T02:39:50Z,1414204790,2014,2,40,298.111,297.988,73.4539,162.5889,-999.00,21.32,23.2,yes,yes,yes,46516,unknown,unknown,unknown,North
2014-10-25T04:39:21Z,1414211962,2014,4,40,298.194,297.988,73.4539,162.5889,-999.00,21.32,23.95,yes,yes,yes,46516,unknown,unknown,unknown,North
2014-10-25T05:39:50Z,1414215590,2014,5,40,298.236,297.988,73.4539,162.5889,-999.00,21.32,21.7,yes,yes,yes,46516,unknown,unknown,unknown,North
2014-10-25T12:40:19Z,1414240819,2014,12,40,298.528,297.988,73.4539,162.5889,902.0,21.48,21.85,yes,yes,yes,46516,unknown,unknown,unknown,North
2014-10-25T13:39:21Z,1414244362,2014,13,40,298.569,297.988,73.4539,162.5889,-999.00,21.48,20.8,yes,yes,yes,46516,unknown,unknown,unknown,North
2014-10-25T14:39:50Z,1414247990,2014,14,40,298.611,297.988,73.4539,162.5889,-999.00,21.48,22.0,yes,yes,yes,46516,unknown,unknown,unknown,North
2014-10-25T15:40:19Z,1414251619,2014,15,40,298.653,297.988,73.4539,162.5889,-999.00,21.4,20.5,yes,yes,yes,46516,unknown,unknown,unknown,North
2014-10-25T16:39:21Z,1414255162,2014,16,40,298.694,297.988,73.4539,162.5889,-999.00,21.4,20.95,yes,yes,yes,46516,unknown,unknown,unknown,North
2014-10-25T17:39:50Z,1414258790,2014,17,40,298.736,297.988,73.4539,162.5889,-999.00,21.4,19.75,yes,yes,yes,46516,unknown,unknown,unknown,North
2014-10-25T18:40:19Z,1414262419,2014,18,40,298.778,298.91,73.3842,161.5267,-999.00,21.4,19.75,yes,yes,yes,46516,unknown,unknown,unknown,North
2014-10-25T19:39:21Z,1414265962,2014,19,40,298.819,298.911,73.3875,161.5172,-999.00,21.4,18.85,yes,yes,yes,46516,unknown,unknown,unknown,North
2014-10-25T20:39:50Z,1414269590,2014,20,40,298.861,298.91,73.3842,161.5267,-999.00,21.4,19.0,yes,yes,yes,46516,unknown,unknown,unknown,North
2014-10-25T21:40:19Z,1414273219,2014,21,40,298.903,298.911,73.3875,161.5172,-999.00,21.4,18.55,yes,yes,yes,46516,unknown,unknown,unknown,North
2014-10-25T22:39:21Z,1414276762,2014,22,40,298.944,298.911,73.3875,161.5172,-999.00,21.4,18.4,yes,yes,yes,46516,unknown,unknown,unknown,North
2014-10-25T23:39:50Z,1414280390,2014,23,40,298.986,298.911,73.3875,161.5172,-999.00,21.4,18.55,yes,yes,yes,46516,unknown,unknown,unknown,North
2014-10-26T00:40:19Z,1414284019,2014,0,40,299.028,298.911,73.3875,161.5172,-999.00,21.4,20.65,yes,yes,yes,46516,unknown,unknown,unknown,North
2014-10-26T01:39:21Z,1414287562,2014,1,40,299.069,298.911,73.3875,161.5172,-999.00,21.4,20.95,yes,yes,yes,46516,unknown,unknown,unknown,North
2014-10-26T02:39:50Z,1414291190,2014,2,40,299.111,298.911,73.3875,161.5172,-999.00,21.4,19.6,yes,yes,yes,46516,unknown,unknown,unknown,North
2014-10-26T03:40:19Z,1414294819,2014,3,40,299.153,298.911,73.3875,161.5172,-999.00,21.32,20.2,yes,yes,yes,46516,unknown,unknown,unknown,North
2014-10-26T10:49:26Z,1414320566,2014,10,50,299.451,298.911,73.3875,161.5172,-999.00,-5.0,-0.65,yes,yes,yes,46516,unknown,unknown,unknown,North
2014-10-26T12:30:14Z,1414326614,2014,12,30,299.521,298.911,73.3875,161.5172,-999.00,-5.0,-999.0,yes,yes,yes,46516,unknown,unknown,unknown,North
2014-10-26T15:20:09Z,1414336810,2014,15,20,299.639,298.911,73.3875,161.5172,-999.00,-5.0,-999.0,yes,yes,yes,46516,unknown,unknown,unknown,North
2014-10-26T15:50:24Z,1414338624,2014,15,50,299.66,298.911,73.3875,161.5172,-999.00,-5.0,-40.4,yes,yes,yes,46516,unknown,unknown,unknown,North
2014-10-26T16:30:43Z,1414341043,2014,16,30,299.688,298.911,73.3875,161.5172,-999.00,-5.0,-999.0,yes,yes,yes,46516,unknown,unknown,unknown,North
2014-10-26T17:09:36Z,1414343376,2014,17,10,299.715,298.911,73.3875,161.5172,-999.00,-5.0,-999.0,yes,yes,yes,46516,unknown,unknown,unknown,North
2014-10-26T18:10:04Z,1414347005,2014,18,10,299.757,298.911,73.3875,161.5172,-999.00,-5.0,-999.0,yes,yes,yes,46516,unknown,unknown,unknown,North
2014-10-26T18:50:24Z,1414349424,2014,18,50,299.785,298.911,73.3875,161.5172,-999.00,-5.0,-49.4,yes,yes,yes,46516,unknown,unknown,unknown,North
2014-10-26T19:49:26Z,1414352966,2014,19,50,299.826,298.911,73.3875,161.5172,-999.00,-5.0,21.4,yes,yes,yes,46516,unknown,unknown,unknown,North
2014-10-26T20:39:50Z,1414355990,2014,20,40,299.861,298.911,73.3875,161.5172,-999.00,-5.0,-30.8,yes,yes,yes,46516,unknown,unknown,unknown,North
2014-10-26T21:20:09Z,1414358410,2014,21,20,299.889,298.911,73.3875,161.5172,-999.00,-5.0,-999.0,yes,yes,yes,46516,unknown,unknown,unknown,North
2014-10-26T22:00:28Z,1414360829,2014,22,0,299.917,298.911,73.3875,161.5172,-999.00,-5.0,-999.0,yes,yes,yes,46516,unknown,unknown,unknown,North
2014-10-26T22:30:43Z,1414362643,2014,22,30,299.938,298.911,73.3875,161.5172,-999.00,-5.0,-999.0,yes,yes,yes,46516,unknown,unknown,unknown,North
2014-10-26T23:09:36Z,1414364976,2014,23,10,299.965,298.911,73.3875,161.5172,-999.00,-5.0,-999.0,yes,yes,yes,46516,unknown,unknown,unknown,North
2014-10-26T23:39:50Z,1414366790,2014,23,40,299.986,298.911,73.3875,161.5172,-999.00,-5.0,-999.0,yes,yes,yes,46516,unknown,unknown,unknown,North
2014-10-27T00:50:24Z,1414371024,2014,0,50,300.035,298.911,73.3875,161.5172,-999.00,-5.0,-999.0,yes,yes,yes,46516,unknown,unknown,unknown,North
2014-10-27T02:19:40Z,1414376381,2014,2,20,300.097,298.911,73.3875,161.5172,-999.00,15.48,-999.0,yes,yes,yes,46516,unknown,unknown,unknown,North
2014-10-27T03:20:09Z,1414380010,2014,3,20,300.139,298.911,73.3875,161.5172,-999.00,-5.0,-999.0,yes,yes,yes,46516,unknown,unknown,unknown,North
2014-10-27T04:00:28Z,1414382429,2014,4,0,300.167,298.911,73.3875,161.5172,-999.00,-5.0,-49.85,yes,yes,yes,46516,unknown,unknown,unknown,North
2014-10-27T10:10:33Z,1414404634,2014,10,10,300.424,298.911,73.3875,161.5172,-999.00,-5.0,-45.2,yes,yes,yes,46516,unknown,unknown,unknown,North
2014-10-27T13:10:33Z,1414415434,2014,13,10,300.549,298.911,73.3875,161.5172,-999.00,20.6,-44.0,yes,yes,yes,46516,unknown,unknown,unknown,North
2014-10-27T14:49:55Z,1414421395,2014,14,50,300.618,298.911,73.3875,161.5172,-999.00,-5.0,-999.0,yes,yes,yes,46516,unknown,unknown,unknown,North
2014-10-27T15:50:24Z,1414425024,2014,15,50,300.66,298.911,73.3875,161.5172,-999.00,-5.0,-999.0,yes,yes,yes,46516,unknown,unknown,unknown,North
2014-10-27T16:49:26Z,1414428566,2014,16,50,300.701,298.911,73.3875,161.5172,-999.00,-5.0,-999.0,yes,yes,yes,46516,unknown,unknown,unknown,North
2014-10-27T17:29:45Z,1414430986,2014,17,30,300.729,298.911,73.3875,161.5172,-999.00,-5.0,-999.0,yes,yes,yes,46516,unknown,unknown,unknown,North
2014-10-27T18:00:00Z,1414432800,2014,18,0,300.75,298.911,73.3875,161.5172,-999.00,-5.0,21.4,yes,yes,yes,46516,unknown,unknown,unknown,North
2014-10-27T18:30:14Z,1414434614,2014,18,30,300.771,298.911,73.3875,161.5172,-999.00,-5.0,-999.0,yes,yes,yes,46516,unknown,unknown,unknown,North
2014-10-27T19:10:33Z,1414437034,2014,19,10,300.799,298.911,73.3875,161.5172,-999.00,-5.0,-999.0,yes,yes,yes,46516,unknown,unknown,unknown,North
2014-10-27T19:39:21Z,1414438762,2014,19,40,300.819,298.911,73.3875,161.5172,-999.00,-5.0,22.0,yes,yes,yes,46516,unknown,unknown,unknown,North
2014-10-27T20:09:36Z,1414440576,2014,20,10,300.84,298.911,73.3875,161.5172,952.4,-4.36,-999.0,yes,yes,yes,46516,unknown,unknown,unknown,North
